Waarnemingen

Advertentie
Mijn weer
Pisa/S. Giusto, Italië (16158): temperatuur & dauwpunt: 17.09.2018 03:00:00 - 23.09.2018 03:00:00 (CEST)Pisa/S. Giusto, Italië (16158): windsnelheid: 17.09.2018 03:00:00 - 23.09.2018 03:00:00 (CEST)Pisa/S. Giusto, Italië (16158): windrichting: 17.09.2018 03:00:00 - 23.09.2018 03:00:00 (CEST)Pisa/S. Giusto, Italië (16158): luchtdruk: 17.09.2018 03:00:00 - 23.09.2018 03:00:00 (CEST)Pisa/S. Giusto, Italië (16158): zicht: 17.09.2018 03:00:00 - 23.09.2018 03:00:00 (CEST)Pisa/S. Giusto, Italië (16158): Zonneschijnduur: 17.09.2018 03:00:00 - 23.09.2018 03:00:00 (CEST)
Datum & Tijd tt [°C] td [°C] ff [km/u] ff [kn] dd ppp [hPa] vv [km] sd [min]
23.09.2018 03:00:00 21,0 20,0 4 2 ZZO - 10 -
23.09.2018 02:00:00 21,0 20,3 4 2 Z 1018,7 10 -
23.09.2018 01:00:00 21,0 20,0 4 2 NO - 10 -
23.09.2018 00:00:00 21,0 20,0 5 3 O - 10 -
22.09.2018 23:00:00 21,8 21,3 2 1 ONO 1018,6 10 -
22.09.2018 22:00:00 22,0 21,0 2 1 N - 10 -
22.09.2018 21:00:00 23,0 22,0 4 2 WZW - 10 -
22.09.2018 20:00:00 24,0 22,3 8 4 WZW 1016,8 10 0
22.09.2018 19:00:00 25,0 22,0 11 6 WZW - 10 -
22.09.2018 18:00:00 26,0 20,0 9 5 WZW - 10 -
22.09.2018 17:00:00 28,0 17,2 15 8 W 1016,5 10 60
22.09.2018 16:00:00 28,0 17,0 13 7 W - 10 -
22.09.2018 15:00:00 28,0 19,0 9 5 WZW - 10 -
22.09.2018 14:00:00 27,4 19,0 13 7 WZW 1016,8 10 54
22.09.2018 13:00:00 27,0 17,0 8 4 WNW - 10 -
22.09.2018 12:00:00 27,0 17,0 8 4 ZZO - 10 -
22.09.2018 11:00:00 24,0 18,7 13 7 OZO 1017,1 10 60
22.09.2018 10:00:00 23,0 19,0 16 9 OZO - 10 -
22.09.2018 09:00:00 20,0 19,0 13 7 OZO - 10 -
22.09.2018 08:00:00 17,0 16,7 5 3 ZO 1016,8 10 0
22.09.2018 07:00:00 17,0 17,0 4 2 ZZW - 10 -
22.09.2018 06:00:00 18,0 18,0 2 1 ONO - 10 -
22.09.2018 05:00:00 18,0 18,0 9 5 OZO 1016,3 10 -
22.09.2018 04:00:00 18,0 18,0 11 6 OZO - 10 -
22.09.2018 03:00:00 18,0 18,0 11 6 ZO - 10 -
22.09.2018 02:00:00 18,0 17,7 9 5 OZO 1016,3 10 -
22.09.2018 01:00:00 18,0 18,0 9 5 OZO - 10 -
22.09.2018 00:00:00 19,0 19,0 4 2 OZO - 10 -
21.09.2018 23:00:00 20,4 19,9 4 2 OZO 1016,2 10 -
21.09.2018 22:00:00 21,0 21,0 5 3 ZZW - 10 -
21.09.2018 21:00:00 22,0 21,0 5 3 W - 10 -
21.09.2018 20:00:00 24,6 21,3 8 4 ZZW 1015,2 10 0
21.09.2018 19:00:00 25,0 21,0 9 5 WNW - 10 -
21.09.2018 18:00:00 27,0 18,0 15 8 WNW - 10 -
21.09.2018 17:00:00 28,6 15,2 21 11 W 1015,3 10 60
21.09.2018 16:00:00 29,0 15,0 18 10 NW - 10 -
21.09.2018 15:00:00 29,0 14,0 22 12 WNW - 10 -
21.09.2018 14:00:00 29,4 12,8 21 11 W 1015,7 10 60
21.09.2018 13:00:00 29,0 13,0 8 4 ZZO - 10 -
21.09.2018 12:00:00 28,0 14,0 13 7 ZO - 10 -
21.09.2018 11:00:00 23,6 16,7 13 7 O 1016,1 10 60
21.09.2018 10:00:00 23,0 17,0 9 5 OZO - 10 -
21.09.2018 09:00:00 20,0 17,0 8 4 OZO - 10 -
21.09.2018 08:00:00 17,2 17,0 9 5 OZO 1015,8 10 0
21.09.2018 07:00:00 17,0 17,0 8 4 O - 10 -
21.09.2018 06:00:00 17,0 17,0 11 6 OZO - 10 -
21.09.2018 05:00:00 16,8 16,8 9 5 OZO 1015,8 10 -
21.09.2018 04:00:00 17,0 17,0 4 2 ZZO - 10 -
21.09.2018 03:00:00 19,0 18,0 2 1 - - 10 -
21.09.2018 02:00:00 19,0 18,7 4 2 - 1016,5 10 -
21.09.2018 01:00:00 18,0 18,0 5 3 O - 10 -
21.09.2018 00:00:00 20,0 19,0 2 1 - - 10 -
20.09.2018 23:00:00 20,6 18,7 11 6 OZO 1016,8 10 -
20.09.2018 22:00:00 21,0 19,0 5 3 OZO - 10 -
20.09.2018 21:00:00 22,0 19,0 9 5 ZO - 10 -
20.09.2018 20:00:00 25,0 19,2 5 3 ZW 1015,9 10 0
20.09.2018 19:00:00 25,0 20,0 13 7 NNW - 10 -
20.09.2018 18:00:00 26,0 19,0 16 9 WNW - 10 -
20.09.2018 17:00:00 28,4 17,9 18 10 WNW 1016,3 10 60
20.09.2018 16:00:00 29,0 18,0 18 10 WNW - 10 -
20.09.2018 15:00:00 30,0 16,0 16 9 WNW - 10 -
20.09.2018 14:00:00 29,0 16,6 13 7 NNW 1017,7 10 36
20.09.2018 13:00:00 29,0 14,0 9 5 NNW - 10 -
20.09.2018 12:00:00 28,0 14,0 9 5 NNW - 10 -
20.09.2018 11:00:00 25,0 16,7 8 4 OZO 1019,0 10 60
20.09.2018 10:00:00 24,0 17,0 5 3 ZO - 10 -
20.09.2018 09:00:00 21,0 18,0 5 3 ZO - 10 -
20.09.2018 08:00:00 17,0 16,7 4 2 OZO 1018,4 10 0
20.09.2018 07:00:00 17,0 17,0 9 5 OZO - 10 -
20.09.2018 06:00:00 17,0 17,0 5 3 O - 10 -
20.09.2018 05:00:00 18,0 17,7 4 2 OZO 1018,4 10 -
20.09.2018 04:00:00 18,0 18,0 4 2 OZO - 10 -
20.09.2018 03:00:00 19,0 19,0 5 3 OZO - 10 -
20.09.2018 02:00:00 20,0 19,7 4 2 - 1019,2 10 -
20.09.2018 01:00:00 20,0 20,0 5 3 - - 10 -
20.09.2018 00:00:00 20,0 20,0 11 6 ZO - 10 -
19.09.2018 23:00:00 21,0 20,3 4 2 - 1019,0 10 -
19.09.2018 22:00:00 21,0 20,0 5 3 - - 10 -
19.09.2018 21:00:00 23,0 22,0 4 2 - - 10 -
19.09.2018 20:00:00 24,0 21,7 9 5 WNW 1018,1 10 12
19.09.2018 19:00:00 25,0 21,0 9 5 W - 10 -
19.09.2018 18:00:00 26,0 20,0 16 9 WNW - 10 -
19.09.2018 17:00:00 27,2 19,3 18 10 WNW 1017,7 10 -
19.09.2018 16:00:00 28,0 19,0 18 10 WNW - 10 -
19.09.2018 15:00:00 28,0 19,0 21 11 NW - 10 -
19.09.2018 14:00:00 28,0 17,2 16 9 NW 1019,0 10 60
19.09.2018 13:00:00 28,0 18,0 4 2 Z - 10 -
19.09.2018 12:00:00 27,0 18,0 9 5 OZO - 10 -
19.09.2018 11:00:00 25,0 18,7 8 4 ZO 1019,6 10 60
19.09.2018 10:00:00 24,0 19,0 4 2 - - 10 -
19.09.2018 09:00:00 21,0 18,0 5 3 ONO - 10 -
19.09.2018 08:00:00 17,4 17,4 8 4 ZO 1019,4 10 0
19.09.2018 07:00:00 18,0 18,0 5 3 ZO - 10 -
19.09.2018 06:00:00 18,0 18,0 4 2 OZO - 10 -
19.09.2018 05:00:00 18,4 18,4 8 4 OZO 1018,8 10 -
19.09.2018 04:00:00 18,0 18,0 5 3 ZZO - 10 -
19.09.2018 03:00:00 19,0 19,0 4 2 ZZO - 10 -
19.09.2018 02:00:00 19,8 19,8 8 4 O 1019,6 10 -
19.09.2018 01:00:00 20,0 20,0 8 4 ZO - 10 -
19.09.2018 00:00:00 20,0 20,0 4 2 ZO - 10 -
18.09.2018 23:00:00 21,8 21,1 2 1 OZO 1019,2 10 -
18.09.2018 22:00:00 22,0 21,0 4 2 WNW - 10 -
18.09.2018 21:00:00 22,0 21,0 2 1 OZO - 10 -
18.09.2018 20:00:00 24,0 21,3 5 3 W 1018,4 10 0
18.09.2018 19:00:00 24,0 21,0 5 3 WNW - 10 -
18.09.2018 18:00:00 25,0 21,0 9 5 W - 10 -
18.09.2018 17:00:00 26,0 20,1 15 8 WNW 1018,7 10 60
18.09.2018 16:00:00 27,0 19,0 11 6 W - 10 -
18.09.2018 15:00:00 28,0 19,0 18 10 ZW - 10 -
18.09.2018 14:00:00 27,6 19,7 15 8 ZW 1019,7 10 60
18.09.2018 13:00:00 27,0 18,0 8 4 ZZW - 10 -
18.09.2018 12:00:00 27,0 18,0 8 4 ZZO - 10 -
18.09.2018 11:00:00 24,0 17,5 8 4 O 1020,4 10 60
18.09.2018 10:00:00 23,0 18,0 4 2 O - 10 -
18.09.2018 09:00:00 21,0 18,0 4 2 Z - 10 -
18.09.2018 08:00:00 18,0 17,8 4 2 O 1019,8 10 0
18.09.2018 07:00:00 18,0 17,0 4 2 - - 10 -
18.09.2018 06:00:00 18,0 18,0 4 2 - - 10 -
18.09.2018 05:00:00 18,0 17,8 5 3 ZO 1019,5 10 -
18.09.2018 04:00:00 18,0 18,0 4 2 - - 10 -
18.09.2018 03:00:00 19,0 19,0 8 4 ZZO - 10 -
18.09.2018 02:00:00 19,4 18,9 8 4 OZO 1019,9 10 -
18.09.2018 01:00:00 20,0 19,0 5 3 OZO - 10 -
18.09.2018 00:00:00 20,0 20,0 4 2 OZO - 10 -
17.09.2018 23:00:00 21,8 19,7 9 5 OZO 1019,7 10 -
17.09.2018 22:00:00 22,0 21,0 2 1 - - 10 -
17.09.2018 21:00:00 23,0 21,0 4 2 - - 10 -
17.09.2018 20:00:00 24,2 20,7 2 1 - 1019,6 10 0
17.09.2018 19:00:00 24,0 20,0 5 3 W - 10 -
17.09.2018 18:00:00 25,0 20,0 11 6 NW - 10 -
17.09.2018 17:00:00 25,6 19,3 15 8 WNW 1019,8 10 12
17.09.2018 16:00:00 28,0 19,0 18 10 WNW - 10 -
17.09.2018 15:00:00 28,0 17,0 15 8 WNW - 10 -
17.09.2018 14:00:00 25,8 16,7 8 4 WNW 1021,7 10 60
17.09.2018 13:00:00 25,0 18,0 4 2 NNW - 10 -
17.09.2018 12:00:00 24,0 19,0 8 4 ZO - 10 -
17.09.2018 11:00:00 22,0 20,7 11 6 OZO 1021,9 10 18
17.09.2018 10:00:00 20,0 20,0 5 3 OZO - 10 -
17.09.2018 09:00:00 19,0 19,0 9 5 ZO - 10 -
17.09.2018 08:00:00 19,0 18,8 5 3 ZO 1021,7 10 0
17.09.2018 07:00:00 20,0 20,0 5 3 O - 10 -
17.09.2018 06:00:00 19,0 19,0 9 5 ZZO - 10 -
17.09.2018 05:00:00 19,0 19,0 4 2 OZO 1021,7 10 -
17.09.2018 04:00:00 19,0 19,0 9 5 OZO - 10 -
17.09.2018 03:00:00 19,0 19,0 15 8 OZO - 10 -

tt = temperatuur
td = dauwpunt
ff = windsnelheid
dd = windrichting
ppp = luchtdruk
vv = zicht
sd = Zonneschijnduur

Weerstations in de omgeving